カタログに戻る

COSMOS 1275 DEB

運用中PO
NORAD 27733·DEBRIS·🇷🇺 Russia

打ち上げ Jun 4, 1981 から Plesetsk Cosmodrome

Loading…

次のパス (今後24時間)

TLE

最新Source: Space-Track

元期: Sep 14, 2026, 00:34 UTC

1 27733U 81053MN  26257.02427163  .00001641  00000-0  72558-3 0  9998
2 27733  83.1086 113.4402 0029131  88.9631 271.4889 14.22458644380006

AllMySatでCOSMOS 1275 DEBをリアルタイム追跡

Download on the App Store